Location: Heisede
(52.2582°N, 9.8523°E)
Time: 21:15:12
(UTC+00:00)

Meteor 2-13 Rocket - Pass Details

Date: 13 January 2026
Orbit: 935 x 958 km, 82.5° (Epoch: 16 February)

Event Time Altitude Azimuth Distance (km) Brightness Sun altitude
Rises 05:07:37 0° 347° (NNW) 3,645 7.3 -20.1°
Reaches altitude 10° 05:10:09 10° 345° (NNW) 2,692 6.6 -19.7°
Maximum altitude 05:16:14 66° 265° (W) 1,037 4.4 -18.8°
Drops below altitude 10° 05:22:14 10° 185° (S) 2,657 6.9 -17.9°
Sets 05:24:43 0° 182° (S) 3,595 7.6 -17.5°
